Tracking 33208 objects as of 14-Feb-2026
HD Live streaming from Space Station
objects crossing your sky now

SHIYAN 20A DEB

Track SHIYAN 20A DEB now!
10-day predictions


NORAD ID: 55716
Int'l Code: 2022-169E
Perigee: 776.2 km
Apogee: 803.6 km
Inclination: 60.0 °
Period: 100.5 minutes
Semi major axis: 7160 km
RCS: Unknown
Launch date: December 12, 2022
Source: People's Republic of China (PRC)
Launch site: Jiuquan Satellite Launch Center, China (JSC)

Note: This is SATELLITE DEBRIS
Your satellite tracking list
Your tracking list is empty




NASA's NSSDC Master Catalog

Two Line Element Set (TLE):
1 55716U 22169E   26043.83526065  .00000818  00000-0  34938-3 0  9991
2 55716  59.9937 281.8367 0019127 107.2967 253.0164 14.32695224155151
Source of the keplerian elements: AFSPC